When you browse on this site, cookies collect data to enhance your experience and personalize the content and advertising you see.
Visit our Privacy Policy to learn more. By continuing to use the site, you agree to this use of cookies and data.
  • In Lithuania
  • List of Countries
  • For 7 days
  • Water Temperature
  • Weather Map
  • Weather Widgets
  • user-avatar
    Login

    Hourly Weather Sokolov

    Today, 26 January, Sunday

    Time Temperature Precipitation Wind Pressure Humidity
    00:00 +1°C° 0 mm 1 mps 728 mmHg 75%
    01:00 +1°C° 0 mm 1 mps 728 mmHg 77%
    02:00 +1°C° 0 mm 1 mps 728 mmHg 79%
    03:00 +1°C° 0 mm 1 mps 728 mmHg 80%
    04:00 +1°C° 0 mm 1 mps 728 mmHg 82%
    05:00 +1°C° 0 mm 1 mps 727 mmHg 84%
    06:00 +2°C° 0 mm 1 mps 727 mmHg 86%
    07:00 +2°C° 0 mm 1 mps 727 mmHg 88%
    08:00 +2°C° 0 mm 1 mps 728 mmHg 86%
    09:00 +3°C° 0 mm 1 mps 728 mmHg 84%
    10:00 +4°C° 0 mm 1 mps 728 mmHg 82%
    11:00 +4°C° 0 mm 1 mps 728 mmHg 81%
    12:00 +5°C° 0 mm 1 mps 727 mmHg 80%
    13:00 +6°C° 0 mm 1 mps 727 mmHg 78%
    14:00 +5°C° 0 mm 1 mps 727 mmHg 81%
    15:00 +5°C° 0 mm 1 mps 727 mmHg 84%
    16:00 +5°C° 0 mm 1 mps 727 mmHg 87%
    17:00 +4°C° 0 mm 1 mps 726 mmHg 89%
    18:00 +3°C° 0 mm 1 mps 726 mmHg 91%
    19:00 +3°C° 0 mm 1 mps 726 mmHg 92%
    20:00 +3°C° 0 mm 1 mps 726 mmHg 93%
    21:00 +3°C° 0 mm 1 mps 726 mmHg 94%
    22:00 +3°C° 0 mm 1 mps 726 mmHg 94%
    23:00 +3°C° 0 mm 1 mps 726 mmHg 95%

    Tomorrow, 27 January, Monday

    Time Temperature Precipitation Wind Pressure Humidity
    00:00 +3°C° 0 mm 1 mps 726 mmHg 95%
    01:00 +3°C° 0 mm 1 mps 726 mmHg 95%
    02:00 +2°C° 0 mm 1 mps 726 mmHg 95%
    03:00 +2°C° 0 mm 1 mps 725 mmHg 95%
    04:00 +1°C° 0 mm 2 mps 725 mmHg 96%
    05:00 +1°C° 0 mm 2 mps 725 mmHg 96%
    06:00 +1°C° 0 mm 2 mps 725 mmHg 96%
    07:00 +2°C° 0 mm 2 mps 725 mmHg 96%
    08:00 +2°C° 0 mm 2 mps 725 mmHg 96%
    09:00 +3°C° 0 mm 2 mps 725 mmHg 95%
    10:00 +3°C° 0 mm 2 mps 725 mmHg 95%
    11:00 +4°C° 0 mm 2 mps 724 mmHg 94%
    12:00 +4°C° 0 mm 2 mps 724 mmHg 94%
    13:00 +4°C° 0 mm 2 mps 723 mmHg 93%
    14:00 +4°C° 0 mm 2 mps 723 mmHg 93%
    15:00 +4°C° 0 mm 2 mps 722 mmHg 93%
    16:00 +4°C° 0 mm 2 mps 721 mmHg 93%
    17:00 +3°C° 0 mm 3 mps 721 mmHg 94%
    18:00 +3°C° 0 mm 3 mps 720 mmHg 94%
    19:00 +3°C° 0 mm 3 mps 720 mmHg 95%
    20:00 +3°C° 0.2 mm 3 mps 720 mmHg 95%
    21:00 +3°C° 0.2 mm 4 mps 719 mmHg 95%
    22:00 +3°C° 0.2 mm 4 mps 719 mmHg 96%
    23:00 +3°C° 0.3 mm 4 mps 718 mmHg 96%

    Day after tomorrow, 28 January, Tuesday

    Time Temperature Precipitation Wind Pressure Humidity
    00:00 +3°C° 0.3 mm 4 mps 717 mmHg 96%
    01:00 +3°C° 0.3 mm 4 mps 717 mmHg 96%
    02:00 +3°C° 0.1 mm 4 mps 716 mmHg 95%
    03:00 +3°C° 0.1 mm 4 mps 715 mmHg 95%
    04:00 +3°C° 0.1 mm 4 mps 714 mmHg 95%
    05:00 +2°C° 0.7 mm 5 mps 714 mmHg 95%
    06:00 +2°C° 0.7 mm 6 mps 713 mmHg 95%
    07:00 +2°C° 0.7 mm 6 mps 712 mmHg 95%
    08:00 +2°C° 0.5 mm 6 mps 712 mmHg 94%
    09:00 +2°C° 0.5 mm 6 mps 712 mmHg 93%
    10:00 +2°C° 0.5 mm 5 mps 712 mmHg 92%
    11:00 +2°C° 0.4 mm 5 mps 711 mmHg 92%
    12:00 +2°C° 0.4 mm 5 mps 711 mmHg 91%
    13:00 +2°C° 0.4 mm 5 mps 711 mmHg 90%
    14:00 +1°C° 0.5 mm 6 mps 711 mmHg 89%
    15:00 0°C° 0.5 mm 7 mps 711 mmHg 89%
    16:00 -1°C° 0.5 mm 7 mps 712 mmHg 88%
    17:00 -1°C° 0.4 mm 8 mps 712 mmHg 86%
    18:00 -2°C° 0.4 mm 8 mps 713 mmHg 85%
    19:00 -3°C° 0.4 mm 9 mps 714 mmHg 83%
    20:00 -2°C° 0 mm 8 mps 714 mmHg 82%
    21:00 -3°C° 0 mm 7 mps 714 mmHg 82%
    22:00 -3°C° 0 mm 6 mps 714 mmHg 81%
    23:00 -3°C° 0.3 mm 6 mps 714 mmHg 85%

    29 January, Wednesday

    Time Temperature Precipitation Wind Pressure Humidity
    00:00 -3°C° 0.3 mm 6 mps 714 mmHg 89%
    01:00 -2°C° 0.3 mm 5 mps 713 mmHg 93%
    02:00 -2°C° 0.3 mm 5 mps 713 mmHg 92%
    03:00 -2°C° 0.3 mm 5 mps 713 mmHg 90%
    04:00 -2°C° 0.3 mm 5 mps 713 mmHg 89%
    05:00 -3°C° 0.1 mm 6 mps 714 mmHg 89%
    06:00 -3°C° 0.1 mm 6 mps 714 mmHg 89%
    07:00 -3°C° 0.1 mm 6 mps 714 mmHg 89%
    08:00 -3°C° 0.2 mm 7 mps 715 mmHg 88%
    09:00 -3°C° 0.2 mm 7 mps 715 mmHg 87%
    10:00 -3°C° 0.2 mm 7 mps 716 mmHg 86%
    11:00 -2°C° 0.1 mm 7 mps 716 mmHg 84%
    12:00 -2°C° 0.1 mm 8 mps 717 mmHg 83%
    13:00 -2°C° 0.1 mm 8 mps 717 mmHg 81%
    14:00 -2°C° 0.1 mm 8 mps 717 mmHg 83%
    15:00 -3°C° 0.1 mm 7 mps 718 mmHg 84%
    16:00 -3°C° 0.1 mm 7 mps 718 mmHg 86%
    17:00 -3°C° 0.1 mm 7 mps 719 mmHg 86%
    18:00 -3°C° 0.1 mm 7 mps 719 mmHg 86%
    19:00 -3°C° 0.1 mm 7 mps 720 mmHg 87%
    20:00 -3°C° 0.1 mm 7 mps 721 mmHg 88%
    21:00 -3°C° 0.1 mm 6 mps 721 mmHg 89%
    22:00 -3°C° 0.1 mm 6 mps 722 mmHg 90%
    23:00 -3°C° 0.1 mm 6 mps 722 mmHg 89%

    30 January, Thursday

    Time Temperature Precipitation Wind Pressure Humidity
    00:00 -3°C° 0.1 mm 6 mps 723 mmHg 88%
    01:00 -3°C° 0.1 mm 6 mps 723 mmHg 86%
    02:00 -2°C° 0 mm 5 mps 724 mmHg 87%
    03:00 -4°C° 0 mm 5 mps 724 mmHg 87%
    04:00 -4°C° 0 mm 5 mps 725 mmHg 87%
    05:00 -4°C° 0 mm 5 mps 725 mmHg 87%
    06:00 -4°C° 0 mm 5 mps 725 mmHg 87%
    07:00 -4°C° 0 mm 6 mps 725 mmHg 87%
    08:00 -3°C° 0 mm 6 mps 725 mmHg 86%
    09:00 -3°C° 0 mm 6 mps 725 mmHg 86%
    10:00 -3°C° 0 mm 6 mps 725 mmHg 85%
    11:00 -2°C° 0 mm 7 mps 725 mmHg 86%
    12:00 -2°C° 0 mm 7 mps 724 mmHg 87%
    13:00 -1°C° 0 mm 7 mps 724 mmHg 88%
    14:00 -1°C° 0.1 mm 6 mps 724 mmHg 89%
    15:00 -1°C° 0.1 mm 6 mps 724 mmHg 89%
    16:00 -1°C° 0.1 mm 6 mps 724 mmHg 89%
    17:00 0°C° 0 mm 5 mps 724 mmHg 90%
    18:00 0°C° 0 mm 5 mps 724 mmHg 91%
    19:00 0°C° 0 mm 5 mps 724 mmHg 92%
    20:00 0°C° 0 mm 4 mps 724 mmHg 93%
    21:00 0°C° 0 mm 4 mps 724 mmHg 94%
    22:00 -1°C° 0 mm 4 mps 724 mmHg 95%
    23:00 0°C° 0 mm 3 mps 724 mmHg 95%

    31 January, Friday

    Time Temperature Precipitation Wind Pressure Humidity
    00:00 0°C° 0 mm 3 mps 724 mmHg 95%
    01:00 +1°C° 0 mm 2 mps 724 mmHg 95%
    02:00 -1°C° 0 mm 2 mps 724 mmHg 95%
    03:00 -1°C° 0 mm 2 mps 724 mmHg 95%
    04:00 -1°C° 0 mm 2 mps 724 mmHg 95%
    05:00 -1°C° 0 mm 2 mps 724 mmHg 93%
    06:00 -1°C° 0 mm 2 mps 724 mmHg 91%
    07:00 +1°C° 0 mm 1 mps 724 mmHg 90%
    08:00 +1°C° 0 mm 2 mps 724 mmHg 86%
    09:00 +2°C° 0 mm 2 mps 724 mmHg 81%
    10:00 +2°C° 0 mm 2 mps 724 mmHg 77%
    11:00 +3°C° 0 mm 2 mps 724 mmHg 78%
    12:00 +3°C° 0 mm 2 mps 724 mmHg 79%
    13:00 +3°C° 0 mm 2 mps 724 mmHg 79%
    14:00 +3°C° 0.1 mm 2 mps 724 mmHg 85%
    15:00 +3°C° 0.1 mm 2 mps 724 mmHg 90%
    16:00 +3°C° 0.1 mm 2 mps 724 mmHg 95%
    17:00 +3°C° 0.1 mm 2 mps 724 mmHg 96%
    18:00 +3°C° 0.1 mm 2 mps 725 mmHg 97%
    19:00 +4°C° 0.1 mm 2 mps 725 mmHg 98%
    20:00 +4°C° 0.1 mm 2 mps 725 mmHg 98%
    21:00 +4°C° 0.1 mm 2 mps 725 mmHg 98%
    22:00 +4°C° 0.1 mm 2 mps 725 mmHg 98%
    23:00 +4°C° 0 mm 2 mps 725 mmHg 98%
    Show more